Regional Weather Roundup
Issued by NWS Midland/Odessa, TX

Skip options and go directly to product.
Home | Oldest Version | Previous Version | Current Version | All | Graphics & Text | Save Text | Print | Product List | Glossary On

Skip product version selection by date and time.   
597
ASUS44 KMAF 231610
RWRMAF
MIDLAND AREA WEATHER ROUNDUP
NATIONAL WEATHER SERVICE MIDLAND TX
1000 AM CST MON JAN 23 2017

...IN SOUTHWEST TEXAS AND SOUTHEAST NEW MEXICO...

CITY           SKY/WX    TMP DP  RH WIND       PRES   REMARKS
ALPINE         SUNNY     58  32  36 SW20      30.12F
ANDREWS        FAIR      54  30  39 W15G24    29.96S
ARTESIA        SUNNY     57  30  35 SW25G32   29.95S
BIG SPRING     SUNNY     49  31  50 S10       29.99S
CARLSBAD       CLOUDY    45  30  55 VRB6      29.96R
DRYDEN           N/A     61  24  24 SW18      30.04R
FORT STOCKTON  SUNNY     64  36  35 SW15      30.00S
GUAD PASS      SUNNY     48  29  47 SW24      30.06R
HOBBS          SUNNY     50  32  50 SW8       29.97R
MARFA          SUNNY     46  29  51 SE3       30.14R
MIDLAND AIRPK  SUNNY     53  30  41 SW9       29.98R
MIDLAND INTL   SUNNY     52  28  39 SW12      29.97R
ODESSA         SUNNY     53  28  38 SW13      29.97S
PECOS          SUNNY     55  32  42 E5        29.98S
PRESIDIO       FAIR      52  23  32 CALM      30.13R
SEMINOLE       SUNNY     53  31  43 W16       29.96S
SNYDER         SUNNY     42  32  67 S10       29.97R WCI  36
WINK           SUNNY     60  32  34 SW20G28   29.96F
$$
...OTHER STATIONS IN TEXAS...

CITY           SKY/WX    TMP DP  RH WIND       PRES   REMARKS
ABILENE        SUNNY     53  33  46 S16       29.96F
AMARILLO       SUNNY     51  30  44 W18       29.86R
AUSTIN         SUNNY     60  36  40 NE5       30.05S
BROWNSVILLE    SUNNY     68  35  29 W8        30.10R
CORPUS CHRISTI MOSUNNY   65  36  34 NW6       30.10R
DALLAS FTW     SUNNY     50  34  54 CALM      29.98F
DEL RIO        SUNNY     56  30  37 E6        30.07R
EL PASO        MOSUNNY   45  27  49 SE7       30.05R
HOUSTON INT    SUNNY     58  34  40 NW10      30.03R
LUBBOCK        MOSUNNY   50  30  46 SW17      29.91S
SAN ANGELO     SUNNY     53  34  48 S6        30.00F
SAN ANTONIO    SUNNY     61  34  36 CALM      30.07R
WACO           SUNNY     54  37  52 CALM      30.04R
WICHITA FALLS  NOT AVBL
$$
...OTHER LOCATIONS IN NEW MEXICO...

CITY           SKY/WX    TMP DP  RH WIND       PRES   REMARKS
ALAMAGORDO     SUNNY     48  30  49 S14       30.05R
ALBUQUERQUE    MOSUNNY   37  29  72 S6        29.97S WCI  32
CANNON AFB     SUNNY     45  30  56 W15       29.92R WCI  38
CLOVIS         SUNNY     46  28  49 W20       29.91R WCI  39
HOLLOMAN AFB   SUNNY     46  32  58 S10       30.08R
ROSWELL        SUNNY     41  29  62 CALM      29.93R
RUIDOSO        CLOUDY    45  25  45 NE6       30.03R
SANTA FE       CLOUDY    35  28  75 SE6       29.96R WCI  30
TRUTH OR CONSE SUNNY     42  29  59 SW5       30.01S WCI  39
TUCUMCARI      SUNNY     50  30  46 W17G25    29.88R
$$